Weather in Seferihisar

Turkey     38°11′46″N   26°50′07″E
temp.,
°C
wind,
m/s
gust,
m/s
humid.,
%
clouds,
%
prec.,
mm/h
press.,
hPa
HPBL,
m
2 march, tue
tue200:00+7n712590 0.0 1025608
03:00+6nne814720 0.0 1025763
06:00+6nne914740 0.0 1026859
09:00+6nne1015700 0.0 10271226
12:00+9nne1013611 0.0 10271274
15:00+10n1013540 0.0 10261440
18:00+8nne913620 0.0 10251387
21:00+6n814730 0.1 10261017
3 march, wed
wed300:00+6n914750 0.0 1027898
03:00+5n814730 0.0 1026798
06:00+5n814750 0.0 1026739
09:00+5nne914680 0.0 1026823
12:00+10n912490 0.0 1026948
15:00+13nne1014440 0.0 10251215
18:00+12n914490 0.0 10241071
21:00+9n814620 0.0 1025607
4 march, thu
thu400:00+7n713660 0.0 1025513
03:00+6nne612700 0.0 1024445
06:00+5nne510770 0.0 1023406
09:00+5nne59720 0.0 1023423
12:00+10n57520 0.0 1023564
15:00+13n57470 0.0 1021648
18:00+12n47510 0.0 1019452
21:00+8n23580 0.0 102048
5 march, fri
fri500:00+7n22600 0.0 102036
03:00+6ne01660 0.0 102028
06:00+6sse11614 0.0 101929
09:00+9sse236535 0.0 102084
12:00+14s46510 0.0 1020493
15:00+16s57520 0.0 1018718
18:00+14s476226 0.0 1018766
21:00+12sse367457 0.0 1019199
6 march, sat
sat600:00+12sse3675100 0.0 1019187
03:00+12sse4882100 0.0 1019308
06:00+11se488796 0.1 1019273
09:00+13s488375 0.5 1020700
12:00+16ssw586345 0.2 10201299
15:00+17ssw685928 0.3 10191258
18:00+15sw56670 0.0 10191003
21:00+12ssw23890 0.1 102194